[[{"header":{"parameterUnit":"m.s-1","parameterCategory":1,"la1":30.2992,"la2":30.254,"lo1":-89.0895,"lo2":-89.0443,"dy":0.0025,"dx":0.0025,"nx":19,"ny":19,"refTime":"2026-05-09T03:00:00:Z","depth":0,"parameterNumber":2,"parameterNumberName":"U-component_of_WINDS"},"data":[0,0,0,-4.5954,-4.5955,-4.6011,-4.6011,-4.6114,-4.6115,0,0,0,0,0,0,0,0,0,0,0,-4.5956,-4.5957,-4.5953,-4.5955,-4.6011,-4.6011,-4.6113,-4.6115,0,0,0,0,0,0,0,0,0,0,0,-4.5955,-4.5957,-4.5958,-4.5956,-4.6011,-4.6011,-4.6113,-4.606,0,0,0,0,0,0,0,0,0,0,-4.6001,-4.6021,-4.5956,-4.5958,-4.5956,-4.6011,-4.6011,-4.6057,-4.6063,-4.6102,0,-4.6141,0,-4.613,-4.6124,-4.6124,0,0,0,-4.5942,-4.6015,-4.6014,-4.5959,-4.5957,-4.6011,-4.5982,-4.606,-4.6068,-4.6111,-4.6142,-4.6145,-4.6132,-4.6125,-4.6125,-4.6395,-4.6396,0,0,-4.5938,-4.5976,-4.6009,-4.6019,-4.6012,-4.598,-4.5984,-4.6064,-4.6101,-4.6142,-4.6147,-4.6133,-4.6126,-4.6127,-4.6393,-4.6395,0,0,0,-4.5939,-4.5974,-4.597,-4.6016,-4.6024,-4.5982,-4.5986,-4.6097,-4.6092,-4.6148,-4.6134,-4.6126,-4.6128,-4.6391,-4.6394,-4.6523,0,0,0,-4.5937,-4.5974,-4.5969,-4.5992,-4.6023,-4.6061,-4.6018,-4.6087,-4.6095,-4.6134,-4.6126,-4.6129,-4.6388,-4.6392,-4.6515,-4.6577,0,0,0,-4.5946,-4.5975,-4.5989,-4.5994,-4.6019,-4.6059,-4.6058,-4.6088,-4.6088,-4.6124,-4.613,-4.6387,-4.6391,-4.6508,-4.6565,-4.6659,0,0,0,-4.5966,-4.6103,-4.5992,-4.6141,-4.6019,-4.6139,-4.6057,-4.6144,-4.6192,-4.6127,-4.6389,-4.6393,-4.6505,-4.6558,-4.6651,-4.6743,-4.6785,0,0,-4.616,-4.6128,-4.6212,-4.6115,-4.6264,-4.6127,-4.6296,-4.6304,-4.6273,-4.6356,-4.6362,-4.6518,-4.6564,-4.6657,-4.7011,-4.7045,0,0,0,-4.6286,-4.6347,-4.6379,-4.6426,-4.6436,-4.645,-4.6429,-4.6433,-4.6501,-4.6323,-4.6576,-4.6603,-4.6656,-4.6698,-4.6727,-4.6769,-4.6415,-4.6414,-4.6414,-4.6611,-4.6567,-4.6704,-4.6667,-4.6714,-4.6692,-4.6726,-4.6727,-4.6667,-4.6729,-4.6752,-4.6972,-4.7023,-4.7044,-4.7089,-4.6798,-4.6799,-4.6799,-4.6799,-4.689,-4.6969,-4.6889,-4.6993,-4.6946,-4.7033,-4.702,-4.6975,-4.705,-4.695,-4.6994,-4.6887,-4.7082,-4.7119,-4.6809,-4.6807,-4.6806,-4.6805,-4.6804,-4.7096,-4.7126,-4.7129,-4.7194,-4.725,-4.7209,-4.7285,-4.7239,-4.7197,-4.7241,-4.7261,-4.7259,-4.725,-4.7255,-4.7255,-4.7256,-4.7257,-4.7257,-4.7258,-4.7307,-4.7307,-4.7376,-4.7402,-4.7427,-4.7455,-4.7438,-4.7462,-4.7477,-4.7438,-4.7438,-4.7372,-4.711,-4.7044,-4.7269,-4.7267,-4.7266,-4.7265,-4.7264,-4.7602,-4.7529,-4.7636,-4.7662,-4.7689,-4.7749,-4.7691,-4.7745,-4.7759,-4.7799,-4.7725,-4.754,-4.7503,-4.748,-4.7425,-4.7735,-4.7735,-4.7735,-4.7735,-4.7774,-4.7753,-4.7853,-4.7898,-4.7937,-4.7897,-4.8022,-4.8012,-4.7989,-4.7995,-4.7945,-4.7869,-4.7847,-4.7823,-4.7793,-4.7741,-4.8124,-4.8124,-4.8125,-4.7952,-4.7933,-4.8046,-4.8024,-4.8043,-4.8061,-4.8177,-4.8233,-4.8193,-4.8139,-4.7999,-4.7982,-4.7859,-4.7822,-4.7762,-4.7715,-4.7618,0,0]},{"header":{"parameterUnit":"m.s-1","parameterCategory":1,"la1":30.2992,"la2":30.254,"lo1":-89.0895,"lo2":-89.0443,"dy":0.0025,"dx":0.0025,"nx":19,"ny":19,"refTime":"2026-05-09T03:00:00:Z","depth":0,"parameterNumber":3,"parameterNumberName":"V-component_of_WINDS"},"data":[0,0,0,0.7068,0.7071,0.7201,0.7202,0.7352,0.7354,0,0,0,0,0,0,0,0,0,0,0,0.7019,0.702,0.7068,0.7071,0.7201,0.7202,0.7352,0.7354,0,0,0,0,0,0,0,0,0,0,0,0.7019,0.7019,0.702,0.7072,0.7201,0.7202,0.7352,0.726,0,0,0,0,0,0,0,0,0,0,0.7136,0.708,0.7019,0.702,0.7072,0.7201,0.7202,0.7255,0.7265,0.7286,0,0.7301,0,0.7329,0.7362,0.7363,0,0,0,0.708,0.7071,0.7116,0.702,0.7073,0.72,0.7145,0.7261,0.7272,0.7299,0.7303,0.7309,0.7332,0.7363,0.7364,0.7453,0.7453,0,0,0.7072,0.7037,0.7108,0.7123,0.71,0.7141,0.7149,0.7268,0.727,0.7304,0.7313,0.7334,0.7364,0.7365,0.7453,0.7453,0,0,0,0.7046,0.7031,0.7074,0.7116,0.714,0.7144,0.7154,0.7265,0.7282,0.7315,0.7336,0.7365,0.7367,0.7453,0.7453,0.7419,0,0,0,0.7042,0.7016,0.707,0.705,0.7138,0.7204,0.7147,0.7274,0.7288,0.7335,0.7365,0.7368,0.7453,0.7453,0.742,0.7409,0,0,0,0.7014,0.7013,0.7028,0.7047,0.7102,0.7203,0.7227,0.7278,0.7301,0.7363,0.7368,0.7453,0.7453,0.7421,0.741,0.7422,0,0,0,0.6975,0.6996,0.7027,0.7059,0.71,0.718,0.7227,0.7288,0.7337,0.7366,0.7453,0.7453,0.7421,0.7411,0.7422,0.7425,0.7422,0,0,0.6982,0.6996,0.7018,0.7049,0.7114,0.7163,0.7224,0.7304,0.7343,0.7415,0.7417,0.742,0.741,0.7422,0.7421,0.7419,0,0,0,0.7008,0.7023,0.7048,0.7093,0.7153,0.7205,0.7279,0.7308,0.7371,0.7372,0.7428,0.7424,0.7432,0.7435,0.7433,0.7442,0.7453,0.7453,0.7453,0.6967,0.7015,0.7055,0.7119,0.7162,0.7238,0.7278,0.7331,0.7368,0.738,0.7402,0.7395,0.7397,0.7396,0.7405,0.7407,0.7407,0.7407,0.7407,0.6982,0.7012,0.706,0.7115,0.7167,0.7215,0.729,0.7314,0.7367,0.7383,0.7393,0.7405,0.7392,0.7403,0.7405,0.7405,0.7405,0.7405,0.7406,0.6961,0.6983,0.7018,0.7088,0.7137,0.7202,0.725,0.7296,0.7339,0.7349,0.7377,0.7377,0.7384,0.7359,0.7359,0.7359,0.7359,0.7359,0.7359,0.6924,0.6965,0.6999,0.7065,0.71,0.7152,0.7229,0.7266,0.7318,0.7347,0.7348,0.7383,0.7381,0.738,0.7359,0.7359,0.7359,0.7359,0.7359,0.6921,0.6929,0.6982,0.7016,0.7099,0.7144,0.7202,0.7272,0.7309,0.7331,0.7366,0.7357,0.7374,0.7376,0.7375,0.7355,0.7355,0.7355,0.7355,0.6902,0.6916,0.698,0.7033,0.709,0.7148,0.7208,0.7268,0.7333,0.7359,0.7369,0.7372,0.7371,0.7389,0.7391,0.7391,0.7375,0.7375,0.7375,0.6903,0.6924,0.6965,0.7027,0.7095,0.7152,0.721,0.727,0.7345,0.7376,0.7381,0.738,0.7385,0.7384,0.7414,0.7415,0.7416,0,0]}]]